TimeCST,TemperatureF,Dew PointF,Humidity,Sea Level PressureIn,VisibilityMPH,Wind Direction,Wind SpeedMPH,Gust SpeedMPH,PrecipitationIn,Events,Conditions,WindDirDegrees,DateUTC
12:51 AM,48.0,18.0,30,30.14,10.0,North,18.4,-,N/A,,Overcast,10,2014-01-28 06:51:00
1:51 AM,48.0,19.0,32,30.13,10.0,NNE,17.3,-,N/A,,Overcast,20,2014-01-28 07:51:00
2:45 AM,46.4,19.4,34,30.13,10.0,North,17.3,-,N/A,,Overcast,10,2014-01-28 08:45:00
2:51 AM,46.9,19.0,33,30.13,10.0,North,13.8,-,N/A,,Overcast,10,2014-01-28 08:51:00
3:26 AM,46.4,17.6,32,30.14,10.0,North,16.1,-,N/A,,Overcast,10,2014-01-28 09:26:00
3:51 AM,46.0,17.1,31,30.14,10.0,North,19.6,-,N/A,,Overcast,360,2014-01-28 09:51:00
4:51 AM,44.1,15.1,31,30.16,10.0,North,17.3,-,N/A,,Overcast,360,2014-01-28 10:51:00
5:51 AM,43.0,15.1,32,30.18,10.0,North,20.7,-,N/A,,Overcast,10,2014-01-28 11:51:00
6:51 AM,42.1,16.0,35,30.22,10.0,NNE,17.3,-,N/A,,Overcast,20,2014-01-28 12:51:00
7:51 AM,39.9,18.0,41,30.22,10.0,North,21.9,27.6,N/A,,Overcast,10,2014-01-28 13:51:00
8:51 AM,39.9,18.0,41,30.28,10.0,North,18.4,-,N/A,,Overcast,360,2014-01-28 14:51:00
9:51 AM,39.9,18.0,41,30.31,10.0,North,20.7,25.3,N/A,,Overcast,360,2014-01-28 15:51:00
10:51 AM,39.0,18.0,43,30.34,10.0,North,21.9,27.6,N/A,,Overcast,10,2014-01-28 16:51:00
11:51 AM,39.0,19.0,45,30.34,10.0,NNE,21.9,26.5,0.00,Rain,Light Rain,20,2014-01-28 17:51:00
12:51 PM,37.9,21.0,51,30.35,10.0,North,21.9,27.6,0.00,,Overcast,10,2014-01-28 18:51:00
1:51 PM,37.0,23.0,57,30.35,10.0,North,21.9,-,N/A,,Overcast,360,2014-01-28 19:51:00
2:51 PM,37.0,25.0,62,30.33,10.0,North,20.7,-,N/A,,Overcast,350,2014-01-28 20:51:00
3:51 PM,37.0,23.0,57,30.34,10.0,North,19.6,27.6,N/A,,Overcast,360,2014-01-28 21:51:00
4:51 PM,37.0,19.9,50,30.35,10.0,North,17.3,-,N/A,,Overcast,360,2014-01-28 22:51:00
5:51 PM,37.0,15.1,41,30.36,10.0,North,19.6,-,N/A,,Overcast,360,2014-01-28 23:51:00
6:51 PM,37.9,12.9,36,30.38,10.0,North,20.7,-,N/A,,Overcast,10,2014-01-29 00:51:00
7:51 PM,37.0,14.0,39,30.42,10.0,North,18.4,-,N/A,,Overcast,350,2014-01-29 01:51:00
8:51 PM,37.0,16.0,42,30.43,10.0,NNE,17.3,-,N/A,,Overcast,20,2014-01-29 02:51:00
9:51 PM,37.0,18.0,46,30.46,10.0,North,12.7,-,0.00,,Overcast,360,2014-01-29 03:51:00
10:51 PM,37.0,17.1,44,30.45,10.0,North,12.7,-,N/A,,Overcast,350,2014-01-29 04:51:00
11:51 PM,37.9,17.1,43,30.46,10.0,NNW,10.4,-,N/A,,Overcast,340,2014-01-29 05:51:00